User: anonymous   Login
Location: Kaiser
(34.0939°N, 117.4889°W)
Time: 14:43:32
(UTC+00:00)
Language:

COSMO-SKYMED 1 - Orbit

View from above orbital plane
View from above orbital plane
View from above satellite
View from above satellite

Ground track
Ground track

The orbit data is extracted from the following two-line orbital elements,

1 31598U 07023A   21017.14862219  .00000253  00000-0  38314-4 0  9995
2 31598  97.8825 203.2034 0001444  93.9857 266.1521 14.82157395736481
Epoch (UTC): 17 January 2021 03:34:00
Eccentricity: 0.0001444
inclination: 97.8825°
perigee height: 621 km
apogee height: 623 km
right ascension of ascending node: 203.2034°
argument of perigee: 93.9857°
revolutions per day: 14.82157395
mean anomaly at epoch: 266.1521°
orbit number at epoch: 73648

The dashed part of the orbit path shows where the satellite is in the earth's shadow,  

DLR